DMSP 5D-3 F17 (USA 191)

Last updated on Tue Sep 22 2026 00:02:53 GMT+0000 (Coordinated Universal Time)

1 29522U 06050A 26264.54880311 .00000091 00000+0 69185-4 0 9993 2 29522 98.7428 269.1680 0010857 136.2214 223.9822 14.15009203 26058
UTC large
Height (km)
Speed (km/s)
/
Latitude / Longitude
Inclination (degrees)
Orbital Period (minutes)
Azimuth
Elevation
Range (km)
Doppler Factor

Next 0 passes for location: London (51.5072 / 0.1276)

No passes found over London.
DMSP 5D-3 F17 (USA 191)